TimeEDT,TemperatureF,Dew PointF,Humidity,Sea Level PressureIn,VisibilityMPH,Wind Direction,Wind SpeedMPH,Gust SpeedMPH,PrecipitationIn,Events,Conditions,WindDirDegrees,DateUTC
12:15 AM,60.1,53.1,78,30.23,10.0,Calm,Calm,-,N/A,,Clear,0,2013-09-28 04:15:00
12:35 AM,57.4,54.1,89,30.23,10.0,Calm,Calm,-,N/A,,Clear,0,2013-09-28 04:35:00
12:55 AM,55.8,53.6,92,30.23,10.0,Calm,Calm,-,N/A,,Clear,0,2013-09-28 04:55:00
1:15 AM,54.7,53.1,94,30.23,10.0,Calm,Calm,-,N/A,,Clear,0,2013-09-28 05:15:00
1:35 AM,54.5,52.9,94,30.23,10.0,Calm,Calm,-,N/A,,Clear,0,2013-09-28 05:35:00
1:55 AM,54.0,52.7,95,30.23,10.0,Calm,Calm,-,N/A,,Clear,0,2013-09-28 05:55:00
2:15 AM,53.1,52.2,97,30.23,10.0,Calm,Calm,-,N/A,,Clear,0,2013-09-28 06:15:00
2:35 AM,52.9,52.2,97,30.23,10.0,Calm,Calm,-,N/A,,Clear,0,2013-09-28 06:35:00
2:55 AM,52.9,51.8,96,30.22,10.0,Calm,Calm,-,N/A,,Clear,0,2013-09-28 06:55:00
3:15 AM,52.3,51.3,96,30.22,10.0,Calm,Calm,-,N/A,,Clear,0,2013-09-28 07:15:00
3:35 AM,51.6,50.7,97,30.22,10.0,Calm,Calm,-,N/A,,Clear,0,2013-09-28 07:35:00
3:55 AM,52.2,51.1,96,30.22,10.0,Calm,Calm,-,N/A,,Clear,0,2013-09-28 07:55:00
4:15 AM,52.0,51.1,97,30.22,10.0,Calm,Calm,-,N/A,,Clear,0,2013-09-28 08:15:00
4:35 AM,51.8,51.1,97,30.23,10.0,Calm,Calm,-,N/A,,Clear,0,2013-09-28 08:35:00
4:55 AM,51.3,50.7,98,30.23,10.0,Calm,Calm,-,N/A,,Clear,0,2013-09-28 08:55:00
5:15 AM,50.9,50.2,97,30.23,10.0,Calm,Calm,-,N/A,,Clear,0,2013-09-28 09:15:00
5:35 AM,50.4,50.0,99,30.24,10.0,Calm,Calm,-,N/A,,Clear,0,2013-09-28 09:35:00
5:55 AM,50.4,50.0,99,30.24,10.0,Calm,Calm,-,N/A,,Clear,0,2013-09-28 09:55:00
6:15 AM,50.4,50.0,99,30.24,10.0,Calm,Calm,-,N/A,,Clear,0,2013-09-28 10:15:00
6:35 AM,50.0,50.0,100,30.25,10.0,Calm,Calm,-,N/A,,Clear,0,2013-09-28 10:35:00
6:55 AM,49.8,49.8,100,30.25,10.0,Calm,Calm,-,N/A,,Clear,0,2013-09-28 10:55:00
7:15 AM,49.3,49.1,99,30.26,10.0,Calm,Calm,-,N/A,,Clear,0,2013-09-28 11:15:00
7:35 AM,49.6,49.1,98,30.26,10.0,Calm,Calm,-,N/A,,Clear,0,2013-09-28 11:35:00
7:55 AM,50.0,49.5,98,30.27,10.0,Calm,Calm,-,N/A,,Clear,0,2013-09-28 11:55:00
8:15 AM,51.3,51.1,99,30.27,10.0,Calm,Calm,-,N/A,,Clear,0,2013-09-28 12:15:00
8:35 AM,52.5,52.0,98,30.28,10.0,Calm,Calm,-,N/A,,Clear,0,2013-09-28 12:35:00
8:55 AM,54.7,53.1,94,30.29,10.0,Calm,Calm,-,N/A,,Clear,0,2013-09-28 12:55:00
9:15 AM,57.2,54.0,89,30.29,10.0,North,4.6,-,N/A,,Clear,10,2013-09-28 13:15:00
9:35 AM,59.9,54.0,81,30.29,10.0,NNE,5.8,-,N/A,,Clear,20,2013-09-28 13:35:00
9:55 AM,61.2,52.9,74,30.30,10.0,NNE,4.6,-,N/A,,Clear,20,2013-09-28 13:55:00
10:15 AM,63.0,52.5,69,30.30,10.0,NNE,6.9,-,N/A,,Clear,20,2013-09-28 14:15:00
10:35 AM,63.5,51.8,66,30.30,10.0,NE,8.1,-,N/A,,Clear,50,2013-09-28 14:35:00
10:55 AM,64.4,51.4,63,30.30,10.0,NE,9.2,-,N/A,,Scattered Clouds,40,2013-09-28 14:55:00
11:15 AM,64.8,51.3,62,30.30,10.0,North,11.5,16.1,N/A,,Scattered Clouds,10,2013-09-28 15:15:00
11:35 AM,65.3,51.4,61,30.30,10.0,NNE,6.9,-,N/A,,Mostly Cloudy,30,2013-09-28 15:35:00
11:55 AM,64.6,51.4,62,30.29,10.0,North,8.1,-,N/A,,Overcast,10,2013-09-28 15:55:00
12:15 PM,64.9,50.5,60,30.29,10.0,NNE,6.9,-,N/A,,Mostly Cloudy,30,2013-09-28 16:15:00
12:35 PM,64.8,51.1,61,30.29,10.0,North,4.6,-,N/A,,Scattered Clouds,10,2013-09-28 16:35:00
12:55 PM,64.9,50.7,60,30.29,10.0,ENE,5.8,-,N/A,,Scattered Clouds,60,2013-09-28 16:55:00
1:15 PM,66.7,48.7,52,30.28,10.0,NE,9.2,18.4,N/A,,Scattered Clouds,40,2013-09-28 17:15:00
1:35 PM,66.4,49.1,54,30.27,10.0,NNE,10.4,-,N/A,,Mostly Cloudy,20,2013-09-28 17:35:00
1:55 PM,67.5,49.5,52,30.26,10.0,NNE,6.9,-,N/A,,Mostly Cloudy,30,2013-09-28 17:55:00
2:15 PM,66.9,49.5,53,30.25,10.0,NNE,6.9,16.1,N/A,,Mostly Cloudy,30,2013-09-28 18:15:00
2:35 PM,67.8,49.8,52,30.24,10.0,NNE,8.1,-,N/A,,Mostly Cloudy,30,2013-09-28 18:35:00
2:55 PM,68.0,49.1,51,30.24,10.0,NNE,8.1,-,N/A,,Mostly Cloudy,20,2013-09-28 18:55:00
3:15 PM,66.6,49.3,54,30.24,10.0,North,9.2,-,N/A,,Mostly Cloudy,10,2013-09-28 19:15:00
3:35 PM,67.8,49.3,51,30.24,10.0,North,9.2,-,N/A,,Mostly Cloudy,360,2013-09-28 19:35:00
3:55 PM,67.3,50.7,55,30.23,10.0,NNE,8.1,16.1,N/A,,Mostly Cloudy,20,2013-09-28 19:55:00
4:15 PM,66.6,50.9,57,30.23,10.0,NNE,8.1,-,N/A,,Overcast,30,2013-09-28 20:15:00
4:35 PM,67.5,48.9,51,30.22,10.0,NE,5.8,-,N/A,,Mostly Cloudy,40,2013-09-28 20:35:00
4:55 PM,66.2,50.2,56,30.23,10.0,NNE,6.9,-,N/A,,Overcast,30,2013-09-28 20:55:00
5:15 PM,66.9,49.6,54,30.22,10.0,ENE,5.8,-,N/A,,Mostly Cloudy,60,2013-09-28 21:15:00
5:35 PM,66.0,51.1,59,30.22,10.0,NNE,4.6,-,N/A,,Mostly Cloudy,30,2013-09-28 21:35:00
5:55 PM,65.7,50.7,58,30.23,10.0,NNE,4.6,-,N/A,,Clear,20,2013-09-28 21:55:00
6:15 PM,63.9,51.3,64,30.23,10.0,Calm,Calm,-,N/A,,Clear,0,2013-09-28 22:15:00
6:35 PM,64.0,51.8,64,30.23,10.0,North,3.5,-,N/A,,Clear,360,2013-09-28 22:35:00
6:55 PM,61.5,54.0,76,30.23,10.0,Calm,Calm,-,N/A,,Clear,0,2013-09-28 22:55:00
7:15 PM,59.0,54.0,83,30.23,10.0,Calm,Calm,-,N/A,,Clear,0,2013-09-28 23:15:00
7:35 PM,57.6,53.6,87,30.23,10.0,Calm,Calm,-,N/A,,Clear,0,2013-09-28 23:35:00
7:55 PM,56.5,53.6,90,30.23,10.0,Calm,Calm,-,N/A,,Clear,0,2013-09-28 23:55:00
8:15 PM,55.9,53.1,90,30.23,10.0,Calm,Calm,-,N/A,,Clear,0,2013-09-29 00:15:00
8:35 PM,56.1,53.1,89,30.23,10.0,Calm,Calm,-,N/A,,Clear,0,2013-09-29 00:35:00
8:55 PM,55.4,52.7,91,30.23,10.0,Calm,Calm,-,N/A,,Clear,0,2013-09-29 00:55:00
9:15 PM,54.7,52.7,93,30.23,10.0,Calm,Calm,-,N/A,,Clear,0,2013-09-29 01:15:00
9:35 PM,54.5,52.2,92,30.23,10.0,Calm,Calm,-,N/A,,Clear,0,2013-09-29 01:35:00
9:55 PM,54.9,52.0,90,30.23,10.0,Calm,Calm,-,N/A,,Clear,0,2013-09-29 01:55:00
10:15 PM,53.8,51.8,93,30.23,10.0,Calm,Calm,-,N/A,,Clear,0,2013-09-29 02:15:00
10:35 PM,54.0,51.8,92,30.22,10.0,Calm,Calm,-,N/A,,Clear,0,2013-09-29 02:35:00
10:55 PM,54.5,52.3,92,30.22,10.0,Calm,Calm,-,N/A,,Scattered Clouds,0,2013-09-29 02:55:00
11:15 PM,54.7,52.2,91,30.22,10.0,Calm,Calm,-,N/A,,Mostly Cloudy,0,2013-09-29 03:15:00
11:35 PM,55.4,52.7,91,30.22,10.0,Calm,Calm,-,N/A,,Scattered Clouds,0,2013-09-29 03:35:00
11:55 PM,54.5,52.5,93,30.22,10.0,Calm,Calm,-,N/A,,Scattered Clouds,0,2013-09-29 03:55:00